Location: Hylvaty SDH
(49.9612°N, 16.4057°E)
Time: 12:44:06
(UTC+01:00)

A-11 Canister half - Pass Details

Date: 10 October 2020
Orbit: 1526 x 1683 km, 47.3° (Epoch: 28 October)

Event Time Altitude Azimuth Distance (km) Brightness Sun altitude
Rises 22:45:51 0° 263° (W) 4,677 11.9 -40.8°
Reaches altitude 10° 22:48:52 10° 262° (W) 3,693 11.2 -41.1°
Enters shadow 22:54:04 39° 256° (WSW) 2,156 9.7 -41.6°
Maximum altitude 22:58:09 77° 178° (S) 1,572 - -42.0°
Drops below altitude 10° 23:07:34 10° 95° (E) 3,750 - -42.9°
Sets 23:10:40 0° 94° (E) 4,752 - -43.1°
